Location: Devore Heights
(34.2372°N, 117.4156°W)
Time: 04:22:45
(UTC+00:00)

A-11 Canister half - Pass Details

Date: 15 September 2024
Orbit: 1515 x 1684 km, 47.2° (Epoch: 08 October)

Event Time Altitude Azimuth Distance (km) Brightness Sun altitude
Rises 04:43:09 0° 279° (W) 4,699 12.4 -33.5°
Reaches altitude 10° 04:46:34 10° 287° (WNW) 3,700 11.8 -34.1°
Maximum altitude 04:55:02 37° 353° (N) 2,184 9.9 -35.6°
Enters shadow 04:59:33 25° 41° (NE) 2,705 10.2 -36.3°
